Hourly Data Report for July 13, 2021

MANIWAKI AIRPORT
QUEBEC
Current Station Operator: ECCC - MSC

46°16'29.000" N
75°59'31.000" W
199.70 m
7034482
71721
WMJ

Download Data

Hourly Data (July 2021)
Hourly Data Report for July 13, 2021
TIME
LST
Temp Definition
°C
Dew Point Definition
°C
Rel Hum Definition
%
Precip. Amount Definition
mm

Wind Dir Definition
10's deg

Wind Spd Definition
km/h
Visibility Definition
km
Stn Press Definition
kPa
Hmdx Definition


Wind Chill Definition


Weather Definition


00:00 15.0 14.1 94 0.0 1 3   99.83     LegendNANA
01:00 15.3 14.6 96 0.0   0   99.83     LegendNANA
02:00 15.2 14.5 96 0.0 35 2   99.80     LegendNANA
03:00 15.6 15.0 96 0.0 36 2   99.78     LegendNANA
04:00 15.5 14.8 96 0.0 36 4   99.78     LegendNANA
05:00 15.9 15.2 96 0.0 4 3   99.76     LegendNANA
06:00 17.9 16.6 92 0.0 6 3   99.74     LegendNANA
07:00 19.8 16.4 81 0.0 3 3   99.75     LegendNANA
08:00 20.7 16.5 77 0.0 12 6   99.76 26   LegendNANA
09:00 20.8 17.1 79 0.0 14 8   99.73 26   LegendNANA
10:00 20.8 16.9 79 0.0 12 7   99.72 26   LegendNANA
11:00 21.7 17.2 75 0.0 9 7   99.66 27   LegendNANA
12:00 22.1 17.8 77 0.0 12 5   99.62 28   LegendNANA
13:00 22.7 18.9 79 0.0 13 7   99.59 29   LegendNANA
14:00 22.3 19.5 84 0.0 11 6   99.53 29   LegendNANA
15:00 22.9 19.9 83 0.0 16 4   99.48 30   LegendNANA
16:00 22.6 19.8 84 0.0 14 11   99.41 30   LegendNANA
17:00 22.6 20.0 85 0.0 13 9   99.39 30   LegendNANA
18:00 22.3 20.0 87 0.0 11 8   99.32 30   LegendNANA
19:00 21.4 20.2 93 0.3 7 5   99.26 29   LegendNANA
20:00 21.0 20.4 96 5.9 11 10   99.24 29   LegendNANA
21:00 21.0 20.6 98 6.7 16 4   99.15 29   LegendNANA
22:00 20.3 19.7 97 0.2 17 14   99.14 28   LegendNANA
23:00 19.6 19.2 97 0.0 19 10   99.10     LegendNANA

Notes on Data Quality.

Legend

  • E = Estimated
  • M = Missing
  • NA = Not Available*
  • [empty] = Indicates an unobserved value
Date modified: